This is the latest recevied weather packets stored in our database for station/object IV3CGM-13. If no packets are shown the sender has not sent any weather packets the latest 10 day(s).
| Time | Temp. | Humidity | Pressure | Rain* | Wind** | Luminosity | Snow |
|---|---|---|---|---|---|---|---|
| 1777424514 | 13.89° C | 80% | 1016.2 hPa | 0 mm | - | 0 W/m² | - |
| 1777423826 | 13.89° C | 82% | 1016.3 hPa | 0 mm | - | 0 W/m² | - |
| 1777423138 | 13.89° C | 82% | 1016.4 hPa | 0 mm | - | 0 W/m² | - |
| 1777422402 | 13.89° C | 84% | 1016.4 hPa | 0 mm | - | 0 W/m² | - |
| 1777421701 | 13.89° C | 82% | 1016.5 hPa | 0 mm | - | 0 W/m² | - |
| 1777421014 | 13.89° C | 82% | 1016.7 hPa | 0 mm | - | 0 W/m² | - |
| 1777420326 | 13.89° C | 80% | 1016.8 hPa | 0 mm | - | 0 W/m² | - |
| 1777419639 | 13.89° C | 81% | 1016.8 hPa | 0 mm | - | 0 W/m² | - |
| 1777418902 | 13.89° C | 82% | 1016.8 hPa | 0 mm | - | 0 W/m² | - |
| 1777418201 | 13.89° C | 83% | 1016.9 hPa | 0.51 mm | - | 0 W/m² | - |
| 1777417513 | 13.33° C | 84% | 1016.9 hPa | 1.27 mm | - | 0 W/m² | - |
| 1777416826 | 13.33° C | 86% | 1016.9 hPa | 2.03 mm | - | 0 W/m² | - |
| 1777416138 | 13.33° C | 87% | 1016.9 hPa | 2.29 mm | - | 0 W/m² | - |
| 1777415402 | 13.33° C | 87% | 1017 hPa | 2.79 mm | - | 0 W/m² | - |
| 1777414701 | 13.33° C | 88% | 1017 hPa | 2.29 mm | - | 0 W/m² | - |
| 1777413325 | 13.33° C | 90% | 1017.2 hPa | 0.76 mm | - | 0 W/m² | - |
| 1777412638 | 13.89° C | 86% | 1017 hPa | 0.51 mm | - | 0 W/m² | - |
| 1777411902 | 15° C | 76% | 1017 hPa | 0 mm | - | 0 W/m² | - |
| 1777411200 | 15.56° C | 70% | 1016.9 hPa | 0 mm | - | 0 W/m² | - |
| 1777410512 | 15.56° C | 70% | 1016.8 hPa | 0 mm | - | 0 W/m² | - |
| 1777409824 | 15.56° C | 71% | 1016.7 hPa | 0 mm | - | 0 W/m² | - |
| 1777409137 | 15.56° C | 71% | 1016.7 hPa | 0 mm | - | 0 W/m² | - |
| 1777408400 | 16.11° C | 67% | 1016.6 hPa | 0 mm | - | 0 W/m² | - |
| 1777407699 | 16.11° C | 64% | 1016.6 hPa | 0 mm | - | 0 W/m² | - |
| 1777407012 | 16.11° C | 66% | 1016.5 hPa | 0 mm | - | 0 W/m² | - |
* Rain latest hour (hover to see other rain measurements)
** Current wind speed in m/s (hover to see current wind gust speed)